FW8647 Weather Reports


time (UTC)temp
C
wind
direction
speed
KPH
gust
KPH
rain 1hr
cm
rain 24hr
cm
rain mn
cm
humidity
%
barometer
mb
20260506195418 8 345 14.5 17.7 0.00 0.36 0.36 52 1014.1
20260506194418 10 35 6.4 9.7 0.00 0.36 0.36 52 1014.0
20260506193418 9 327 9.7 17.7 0.00 0.36 0.36 53 1014.1
20260506192417 9 313 6.4 9.7 0.00 0.36 0.36 53 1014.0
20260506191416 9 343 8.0 11.3 0.00 0.36 0.36 52 1014.1
20260506190415 9 249 9.7 16.1 0.00 0.36 0.36 54 1014.3
20260506185416 9 259 6.4 9.7 0.00 0.36 0.36 55 1014.2
20260506184415 10 302 8.0 14.5 0.00 0.36 0.36 56 1014.0
20260506183414 9 33 11.3 14.5 0.00 0.36 0.36 55 1014.0
20260506182414 9 283 8.0 12.9 0.00 0.36 0.36 55 1013.7
20260506181409 10 272 3.2 4.8 0.00 0.36 0.36 56 1013.6
20260506180408 10 347 3.2 4.8 0.00 0.36 0.36 57 1013.5
20260506175408 9 5 6.4 9.7 0.00 0.36 0.36 59 1013.8
20260506174402 9 288 6.4 9.7 0.00 0.36 0.36 60 1014.0
20260506173401 8 302 3.2 4.8 0.00 0.36 0.36 62 1013.4
20260506172401 9 323 11.3 16.1 0.00 0.36 0.36 63 1013.2
20260506171356 9 336 14.5 24.1 0.00 0.36 0.36 64 1013.2
20260506170355 9 337 8.0 16.1 0.00 0.36 0.36 65 1013.4
20260506165352 9 268 11.3 14.5 0.00 0.36 0.36 67 1013.4
20260506164351 8 335 12.9 20.9 0.00 0.36 0.36 71 1013.3
20260506163349 8 336 8.0 12.9 0.00 0.36 0.36 73 1012.9
20260506162349 10 8 6.4 12.9 0.00 0.36 0.36 73 1013.2
20260506161343 9 352 6.4 14.5 0.00 0.36 0.36 74 1013.4
20260506160343 10 342 9.7 14.5 0.00 0.36 0.36 75 1013.2
20260506155338 9 279 8.0 9.7 0.00 0.36 0.36 79 1012.5
20260506153456 9 279 8.0 9.7 0.00 0.36 0.36 79 1012.5
20260506152455 9 223 1.6 4.8 0.00 0.36 0.36 83 1012.5
20260506151451 8 192 1.6 1.6 0.00 0.36 0.36 86 1012.3
20260506150450 8 235 4.8 4.8 0.00 0.36 0.36 84 1012.2
20260506145449 8 265 8.0 11.3 0.00 0.36 0.36 85 1012.4
20260506144449 8 261 6.4 8.0 0.00 0.36 0.36 84 1012.1
20260506143444 9 186 1.6 8.0 0.00 0.36 0.36 80 1012.0
20260506142440 8 187 0.0 1.6 0.00 0.36 0.36 83 1011.8
20260506141436 8 222 1.6 3.2 0.00 0.36 0.36 86 1011.5
20260506140431 8 192 4.8 9.7 0.00 0.36 0.36 83 1011.8
20260506135431 8 148 4.8 9.7 0.00 0.36 0.36 85 1011.7
20260506134428 8 193 0.0 0.0 0.00 0.36 0.36 90 1011.8
20260506133428 8 138 1.6 3.2 0.00 0.36 0.36 92 1011.8
20260506132428 7 203 4.8 4.8 0.00 0.36 0.36 94 1011.9
20260506131428 7 199 1.6 3.2 0.00 0.36 0.36 95 1011.9
20260506130427 7 208 0.0 0.0 0.00 0.36 0.36 96 1011.7
20260506125423 7 196 0.0 0.0 0.00 0.36 0.36 97 1011.8
20260506124418 7 201 0.0 0.0 0.00 0.36 0.36 98 1011.5
20260506123414 7 222 0.0 1.6 0.00 0.36 0.36 98 1011.5
20260506122413 7 219 0.0 0.0 0.00 0.36 0.36 99 1011.4
20260506121408 7 197 0.0 1.6 0.00 0.36 0.36 99 1011.7
20260506120403 7 206 0.0 0.0 0.00 0.36 0.36 99 1011.5
20260506115358 7 189 0.0 0.0 0.00 0.36 0.36 99 1011.4
20260506114358 7 191 0.0 0.0 0.00 0.36 0.36 99 1011.1
20260506113354 7 181 0.0 3.2 0.00 0.36 0.36 99 1011.2
20260506112354 7 124 0.0 0.0 0.00 0.36 0.36 99 1011.3
20260506111350 7 177 0.0 0.0 0.00 0.36 0.36 99 1010.8
20260506110349 7 187 0.0 0.0 0.00 0.36 0.36 99 1011.1
20260506105348 7 185 4.8 8.0 0.00 0.36 0.36 99 1010.8
20260506104344 7 192 3.2 3.2 0.00 0.36 0.36 99 1010.5
20260506103339 7 201 0.0 0.0 0.00 0.36 0.36 99 1010.4
20260506102334 7 201 3.2 4.8 0.00 0.36 0.36 99 1010.3
20260506101332 7 201 0.0 0.0 0.00 0.36 0.36 99 1010.3
20260506100329 7 201 0.0 0.0 0.00 0.36 0.36 99 1010.6
20260506095329 7 201 0.0 0.0 0.00 0.36 0.36 99 1010.6
20260506094325 7 201 0.0 0.0 0.00 0.36 0.36 99 1010.1
20260506093325 7 201 0.0 0.0 0.00 0.36 0.36 99 1009.8
20260506092321 7 201 0.0 1.6 0.00 0.36 0.36 99 1010.3
20260506091321 7 201 3.2 3.2 0.18 0.36 0.36 99 1010.6
20260506090316 7 201 0.0 0.0 0.00 0.33 0.33 99 1010.8
20260506085314 7 201 1.6 1.6 0.00 0.33 0.33 99 1011.0
20260506084314 7 201 0.0 1.6 0.13 0.33 0.33 99 1011.1
20260506083308 7 201 0.0 0.0 0.00 0.30 0.30 99 1010.8
20260506082307 7 201 4.8 4.8 0.00 0.30 0.30 99 1011.0
20260506081302 7 201 0.0 0.0 0.00 0.30 0.30 99 1011.1
20260506080301 7 202 0.0 0.0 0.00 0.30 0.30 99 1011.0
20260506073251 7 201 1.6 3.2 0.00 0.30 0.30 99 1011.1
20260506072246 7 202 0.0 0.0 0.00 0.30 0.30 99 1011.0
20260506071241 7 192 0.0 1.6 0.00 0.30 0.30 99 1010.9
20260506070241 7 195 3.2 3.2 0.00 0.30 0.30 99 1010.6
20260506062223 7 200 0.0 0.0 0.43 0.28 0.28 99 1010.7
20260506061223 -17 0.0 0.0 0.00 0.00 0.00 1010.7
20260506060218 -17 0.0 0.0 0.00 0.00 0.00 1010.8
20260506051208 -17 0.0 0.0 0.00 0.00 0.00 1011.3
20260506050203 -17 0.0 0.0 0.00 0.00 0.00 1011.6
20260506044202 -17 0.0 0.0 0.00 0.00 0.00 1011.6
20260506043158 -17 0.0 0.0 0.00 0.00 0.00 1011.9
20260506042154 7 175 1.6 4.8 0.18 0.03 0.03 98 1011.9
20260506041149 8 202 4.8 8.0 0.00 0.00 0.00 97 1011.9
20260506040149 8 202 4.8 8.0 0.00 0.00 0.00 97 1011.8
20260506035149 8 198 0.0 0.0 0.00 0.08 0.08 97 1011.8
20260506034149 8 198 0.0 0.0 0.00 0.08 0.08 97 1011.8
20260506033148 8 155 0.0 0.0 0.00 0.08 0.08 97 1011.9
20260506032148 8 159 0.0 0.0 0.00 0.08 0.08 96 1011.7
20260506031147 8 189 1.6 3.2 0.00 0.08 0.08 96 1011.7
20260506030143 8 193 0.0 0.0 0.00 0.08 0.08 95 1011.2
20260506025141 8 144 0.0 0.0 0.00 0.08 0.08 95 1011.1
20260506024141 8 175 0.0 0.0 0.00 0.08 0.08 95 1011.8
20260506023141 8 207 0.0 0.0 0.00 0.08 0.08 94 1011.7
20260506022141 8 230 0.0 0.0 0.00 0.08 0.08 94 1011.9
20260506021136 8 138 0.0 0.0 0.00 0.08 0.08 93 1011.6
20260506020137 8 197 0.0 0.0 0.00 0.08 0.08 92 1011.7
20260506015137 8 221 0.0 0.0 0.00 0.08 0.08 91 1011.7
20260506014136 8 144 0.0 0.0 0.00 0.08 0.08 88 1011.9
20260506013131 8 183 0.0 0.0 0.00 0.08 0.08 87 1011.5
20260506012129 9 161 0.0 0.0 0.00 0.08 0.08 85 1011.6
20260506011129 9 194 0.0 0.0 0.00 0.08 0.08 84 1011.4
20260506010124 9 192 0.0 0.0 0.00 0.08 0.08 84 1011.3
20260506005124 9 195 0.0 0.0 0.00 0.08 0.08 84 1011.0
20260506004124 9 210 0.0 0.0 0.00 0.08 0.08 82 1011.2
20260506003122 9 195 0.0 0.0 0.00 0.08 0.08 83 1011.0
20260506002120 9 202 0.0 0.0 0.00 0.08 0.08 83 1010.8
20260506001119 9 198 0.0 0.0 0.00 0.08 0.08 82 1010.7
20260506000119 9 204 0.0 0.0 0.00 0.08 0.08 82 1010.6
20260505235120 8 221 0.0 0.0 0.00 0.08 0.08 82 1010.6
20260505234119 9 258 0.0 0.0 0.00 0.08 0.08 82 1010.9
20260505233114 8 205 0.0 0.0 0.00 0.08 0.08 83 1011.0
20260505232114 9 196 0.0 0.0 0.00 0.08 0.08 83 1010.8
20260505231110 8 220 0.0 0.0 0.00 0.08 0.08 83 1010.9
20260505230109 9 223 0.0 0.0 0.00 0.08 0.08 83 1010.7
20260505225108 8 203 0.0 0.0 0.00 0.08 0.08 83 1010.7
20260505224107 8 222 0.0 0.0 0.00 0.08 0.08 84 1010.9
20260505223107 8 229 0.0 0.0 0.00 0.08 0.08 83 1010.9
20260505222105 8 289 0.0 1.6 0.00 0.08 0.08 84 1011.0
20260505221104 8 255 0.0 0.0 0.00 0.08 0.08 84 1010.8
20260505220100 8 234 0.0 0.0 0.00 0.08 0.08 84 1010.9
20260505215055 8 202 0.0 0.0 0.00 0.08 0.08 84 1010.9
20260505214055 8 225 0.0 0.0 0.00 0.08 0.08 84 1011.0
20260505213055 8 238 0.0 0.0 0.00 0.08 0.08 85 1011.0
20260505212055 8 284 1.6 3.2 0.00 0.08 0.08 84 1010.8
20260505211055 8 266 3.2 4.8 0.00 0.08 0.08 84 1010.8
20260505210054 8 263 6.4 9.7 0.00 0.08 0.08 83 1011.0
20260505205049 8 256 0.0 0.0 0.00 0.08 0.08 85 1010.9
20260505204044 8 282 0.0 1.6 0.00 0.08 0.08 84 1011.1
20260505203043 9 323 9.7 14.5 0.00 0.08 0.08 84 1010.9
20260505202040 9 282 0.0 3.2 0.00 0.08 0.08 85 1011.1
20260505201035 8 251 4.8 9.7 0.00 0.08 0.08 85 1010.9